Hourly Data Report for October 09, 2019

EUREKA CLIMATE
NUNAVUT
Current Station Operator: ECCC - MSC

79°59'21.000" N
85°56'02.000" W
10.00 m
2401199
71613
NEK

Download Data

Hourly Data (October 2019)
Hourly Data Report for October 9, 2019
TIME Temp Definition
°C
Dew Point Definition
°C
Rel Hum Definition
%
Wind Dir Definition
10's deg

Wind Spd Definition
km/h
Visibility Definition
km
Stn Press Definition
kPa
Hmdx Definition


Wind Chill Definition


Weather Definition


00:00 -3.3 -5.3 87 16 38   100.39   -12 LegendNANA
01:00 -3.0 -5.5 83 16 37   100.42   -11 LegendNANA
02:00 -2.9 -5.7 81 16 35   100.46   -11 LegendNANA
03:00 -3.1 -6.3 79 14 40   100.45   -12 LegendNANA
04:00 -3.4 -5.8 83 16 34   100.44   -11 LegendNANA
05:00 -3.5 -5.3 87 14 28   100.50   -11 LegendNANA
06:00 -3.0 -5.9 80 15 37   100.48   -11 LegendNANA
07:00 -3.1 -5.8 82 15 37   100.47   -11 LegendNANA
08:00 -2.9 -6.1 78 15 37   100.52   -11 LegendNANA
09:00 -2.8 -6.5 76 16 34   100.53   -11 LegendNANA
10:00 -3.5 -6.3 81 15 27   100.54   -11 LegendNANA
11:00 -3.5 -5.9 83 15 32   100.53   -11 LegendNANA
12:00 -3.0 -6.7 76 15 40   100.54   -11 LegendNANA
13:00 -3.1 -6.1 79 15 36   100.55   -11 LegendNANA
14:00 -2.8 -6.2 78 15 37   100.59   -11 LegendNANA
15:00 -2.4 -6.1 76 16 32   100.60   -10 LegendNANA
16:00 -3.0 -5.8 81 13 24   100.60   -10 LegendNANA
17:00 -2.4 -5.0 82 15 34   100.57   -10 LegendNANA
18:00 -2.6 -4.4 87 15 39   100.57   -11 LegendNANA
19:00 -2.5 -4.0 90 15 38   100.56   -11 LegendNANA
20:00 -2.1 -4.0 87 15 40   100.53   -10 LegendNANA
21:00 -1.9 -4.1 85 16 40   100.54   -10 LegendNANA
22:00 -1.9 -4.2 84 16 34   100.58   -9 LegendNANA
23:00 -1.6 -4.4 81 16 42   100.57   -10 LegendNANA

Notes on Data Quality.

Legend

  • E = Estimated
  • M = Missing
  • NA = Not Available*
  • [empty] = Indicates an unobserved value
Date modified: